Flag for Austria Weather past 2 weeks in Neusiedl am See, Burgenland, Austria

Now
62 °F

Cool.


Feels Like: 62 °F
Forecast: 56 / 76 °F
Wind: 2 mph from East

Location: Eisenstadt

Current Time: May 29, 2015 at 10:55:08 AM

Latest Report: May 29, 2015 at 10:00 AM


Visibility: N/A

Pressure: 29.99 "Hg

Humidity: 64%

Dew point: 50 °F

Location of Neusiedl am SeeLocation

Historic Weather in Neusiedl am See — Graph

°F

Neusiedl am See temperature yesterday

Maximum temperature yesterday: 64 °F (at 4:00 PM)
Minimum temperature yesterday: 44 °F (at 2:00 AM)
Average temperature yesterday: 56 °F

Past Weeks' High & Low Weather Summary

 TemperatureHumidityPressure
High75 °F (May 19, 12:00 PM)95% (May 16, 12:00 AM)30.23 "Hg (May 16, 12:00 AM)
Low44 °F (May 28, 2:00 AM)42% (May 16, 5:00 PM)29.73 "Hg (May 19, 6:00 AM)
Average58 °F73%29.97 "Hg
* Reported May 14 9:00 AM — May 29 9:00 AM, Neusiedl am See, Weather by CustomWeather, © 2015

Note: Actual official high and low records may vary slightly from our data, if they occured in-between our weather recording intervals... More about our weather records

Advertising

Neusiedl am See weather history for previous 24 hours

 ConditionsComfort  
Time TempWeatherWind HumidityBarometerVisibility
9:00 AM
Fri, May 29
58 °FCool.1 mph70%30.00 "HgN/A
8:00 AM54 °FPassing clouds.1 mph79%30.01 "Hg9 mi
7:00 AM50 °FSunny.1 mph85%30.01 "Hg9 mi
6:00 AM46 °FPassing clouds.3 mph93%30.00 "Hg9 mi
5:00 AM45 °FPassing clouds.3 mph93%29.99 "Hg9 mi
4:00 AM46 °FClear.3 mph93%29.99 "Hg12 mi
3:00 AM46 °FCool.3 mph91%30.00 "HgN/A
2:00 AM47 °FClear.3 mph91%30.00 "Hg12 mi
1:00 AM47 °FCool.3 mph90%30.01 "HgN/A
10:00 PM
Thu, May 28
51 °FCool.2 mph80%30.02 "HgN/A
9:00 PM55 °FCool.1 mph73%30.01 "HgN/A
8:00 PM60 °FPassing clouds.3 mph54%30.00 "Hg12 mi
7:00 PM61 °FPassing clouds.3 mph47%30.00 "Hg12 mi
6:00 PM62 °FRefreshingly cool.5 mph47%30.01 "HgN/A
5:00 PM64 °FPassing clouds.1 mph43%30.01 "Hg12 mi
4:00 PM64 °FMild.2 mph43%30.03 "HgN/A
3:00 PM62 °FRefreshingly cool.3 mph43%30.04 "HgN/A
2:00 PM62 °FScattered clouds.5 mph43%30.06 "Hg12 mi
11:00 AM58 °FOvercast.2 mph52%30.11 "Hg12 mi
Weather by CustomWeather, © 2015

See weather overviewHow to use our weather pages